^^
TXWeather Station Historical Data
Daily Summary for July 07, 2022 Units:  Metric    English   Both
Daily Weekly Monthly Yearly Custom
  High: Low: Average:
Temperature: 39.4 °C 25.6 °C 31.2 °C
Dew Point: 26.7 °C 22.8 °C 24.3 °C
Humidity: 88% 43% 69%
Wind Speed: 25.7km/h 0km/h 10.1km/h
Wind Gust: 29km/h - -
Wind- - SSE
Pressure: 1019.2 hPa 1015.8 hPa -
Precipitation: 0 mm    
Historical Graphs
 
 
Tabular Data for July 07, 2022
Time Temperature Dew Point Pressure Wind Wind Speed Wind Gust Humidity Rainfall Rate (Hourly) solar
00:04 28.9 °C 23.9 °C 1015.8 hPa SSE 9.7 km/h 9.7 km/h 76% 0 mm 0.00 W/m2
00:09 28.9 °C 23.9 °C 1015.8 hPa South 6.4 km/h 9.7 km/h 76% 0 mm 0.00 W/m2
00:14 28.3 °C 23.9 °C 1015.8 hPa SSE 8 km/h 9.7 km/h 76% 0 mm 0.00 W/m2
00:19 28.3 °C 23.9 °C 1015.8 hPa SSE 6.4 km/h 9.7 km/h 77% 0 mm 0.00 W/m2
00:24 28.3 °C 23.9 °C 1015.8 hPa South 8 km/h 8 km/h 77% 0 mm 0.00 W/m2
00:29 28.3 °C 23.9 °C 1015.8 hPa South 6.4 km/h 6.4 km/h 77% 0 mm 0.00 W/m2
00:34 28.3 °C 23.9 °C 1015.8 hPa South 6.4 km/h 8 km/h 77% 0 mm 0.00 W/m2
00:39 28.3 °C 23.9 °C 1015.8 hPa South 6.4 km/h 8 km/h 77% 0 mm 0.00 W/m2
00:44 28.3 °C 23.9 °C 1015.8 hPa SSE 3.2 km/h 8 km/h 77% 0 mm 0.00 W/m2
00:49 28.3 °C 23.9 °C 1015.8 hPa South 4.8 km/h 6.4 km/h 78% 0 mm 0.00 W/m2
00:54 28.3 °C 23.9 °C 1015.8 hPa South 8 km/h 8 km/h 78% 0 mm 0.00 W/m2
00:59 28.3 °C 23.9 °C 1015.8 hPa SSE 6.4 km/h 8 km/h 78% 0 mm 0.00 W/m2
01:04 28.3 °C 23.9 °C 1015.8 hPa SSE 6.4 km/h 8 km/h 78% 0 mm 0.00 W/m2
01:09 27.8 °C 23.9 °C 1015.8 hPa South 3.2 km/h 8 km/h 78% 0 mm 0.00 W/m2
01:14 27.8 °C 23.9 °C 1015.8 hPa South 6.4 km/h 8 km/h 78% 0 mm 0.00 W/m2
01:19 27.8 °C 23.9 °C 1015.8 hPa South 4.8 km/h 6.4 km/h 79% 0 mm 0.00 W/m2
01:24 27.8 °C 23.9 °C 1015.8 hPa South 4.8 km/h 4.8 km/h 79% 0 mm 0.00 W/m2
01:29 27.8 °C 23.9 °C 1015.8 hPa South 4.8 km/h 4.8 km/h 79% 0 mm 0.00 W/m2
01:34 27.8 °C 23.9 °C 1015.8 hPa South 4.8 km/h 4.8 km/h 79% 0 mm 0.00 W/m2
01:39 27.8 °C 23.9 °C 1015.8 hPa South 4.8 km/h 4.8 km/h 79% 0 mm 0.00 W/m2
01:44 27.8 °C 23.9 °C 1015.8 hPa South 4.8 km/h 4.8 km/h 79% 0 mm 0.00 W/m2
01:49 27.8 °C 23.9 °C 1015.8 hPa South 3.2 km/h 4.8 km/h 80% 0 mm 0.00 W/m2
01:54 27.8 °C 23.9 °C 1015.8 hPa South 3.2 km/h 4.8 km/h 80% 0 mm 0.00 W/m2
01:59 27.8 °C 23.9 °C 1015.8 hPa South 4.8 km/h 4.8 km/h 80% 0 mm 0.00 W/m2
02:04 27.8 °C 23.9 °C 1015.8 hPa South 4.8 km/h 6.4 km/h 80% 0 mm 0.00 W/m2
02:09 27.8 °C 23.9 °C 1015.8 hPa South 6.4 km/h 6.4 km/h 80% 0 mm 0.00 W/m2
02:14 27.8 °C 23.9 °C 1015.8 hPa South 6.4 km/h 6.4 km/h 80% 0 mm 0.00 W/m2
02:19 27.8 °C 23.9 °C 1015.8 hPa South 3.2 km/h 6.4 km/h 80% 0 mm 0.00 W/m2
02:24 27.8 °C 23.9 °C 1015.8 hPa South 3.2 km/h 4.8 km/h 80% 0 mm 0.00 W/m2
02:29 27.2 °C 23.9 °C 1015.8 hPa South 3.2 km/h 4.8 km/h 80% 0 mm 0.00 W/m2
02:34 27.2 °C 23.9 °C 1015.8 hPa South 3.2 km/h 4.8 km/h 81% 0 mm 0.00 W/m2
02:39 27.2 °C 23.9 °C 1015.8 hPa South 3.2 km/h 3.2 km/h 81% 0 mm 0.00 W/m2
02:44 27.2 °C 23.9 °C 1015.8 hPa South 1.6 km/h 3.2 km/h 81% 0 mm 0.00 W/m2
02:49 27.2 °C 23.9 °C 1015.8 hPa South 3.2 km/h 3.2 km/h 81% 0 mm 0.00 W/m2
02:54 27.2 °C 23.9 °C 1015.8 hPa South 3.2 km/h 3.2 km/h 81% 0 mm 0.00 W/m2
02:59 27.2 °C 23.9 °C 1015.8 hPa South 3.2 km/h 3.2 km/h 81% 0 mm 0.00 W/m2
03:04 27.2 °C 23.9 °C 1015.8 hPa South 3.2 km/h 4.8 km/h 81% 0 mm 0.00 W/m2
03:09 27.2 °C 23.9 °C 1015.8 hPa South 1.6 km/h 3.2 km/h 81% 0 mm 0.00 W/m2
03:14 27.2 °C 23.9 °C 1015.8 hPa South 3.2 km/h 4.8 km/h 82% 0 mm 0.00 W/m2
03:19 27.2 °C 23.9 °C 1015.8 hPa South 4.8 km/h 4.8 km/h 82% 0 mm 0.00 W/m2
03:24 27.2 °C 23.9 °C 1015.8 hPa South 3.2 km/h 4.8 km/h 82% 0 mm 0.00 W/m2
03:29 27.2 °C 23.9 °C 1015.8 hPa South 4.8 km/h 4.8 km/h 82% 0 mm 0.00 W/m2
03:34 26.7 °C 23.9 °C 1015.8 hPa South 6.4 km/h 6.4 km/h 83% 0 mm 0.00 W/m2
03:39 26.7 °C 23.9 °C 1015.8 hPa South 4.8 km/h 6.4 km/h 83% 0 mm 0.00 W/m2
03:44 26.7 °C 23.9 °C 1015.8 hPa South 4.8 km/h 4.8 km/h 83% 0 mm 0.00 W/m2
03:49 26.7 °C 23.9 °C 1015.8 hPa South 1.6 km/h 4.8 km/h 83% 0 mm 0.00 W/m2
03:54 26.7 °C 23.9 °C 1015.8 hPa South 3.2 km/h 3.2 km/h 83% 0 mm 0.00 W/m2
03:59 26.7 °C 23.9 °C 1015.8 hPa South 3.2 km/h 3.2 km/h 83% 0 mm 0.00 W/m2
04:04 26.7 °C 23.9 °C 1015.8 hPa South 3.2 km/h 3.2 km/h 83% 0 mm 0.00 W/m2
04:09 26.7 °C 23.9 °C 1015.8 hPa South 6.4 km/h 6.4 km/h 83% 0 mm 0.00 W/m2
04:14 26.7 °C 23.9 °C 1015.8 hPa South 6.4 km/h 6.4 km/h 83% 0 mm 0.00 W/m2
04:19 26.7 °C 23.9 °C 1015.8 hPa South 6.4 km/h 6.4 km/h 84% 0 mm 0.00 W/m2
04:24 26.7 °C 23.9 °C 1015.8 hPa SSE 6.4 km/h 6.4 km/h 84% 0 mm 0.00 W/m2
04:29 26.7 °C 23.9 °C 1015.8 hPa SSE 4.8 km/h 6.4 km/h 84% 0 mm 0.00 W/m2
04:34 26.7 °C 23.9 °C 1015.8 hPa SSE 4.8 km/h 6.4 km/h 84% 0 mm 0.00 W/m2
04:39 26.7 °C 23.9 °C 1015.8 hPa SSE 4.8 km/h 6.4 km/h 84% 0 mm 0.00 W/m2
04:44 26.7 °C 23.9 °C 1015.8 hPa SSE 6.4 km/h 6.4 km/h 84% 0 mm 0.00 W/m2
04:49 26.7 °C 23.9 °C 1015.8 hPa SSE 4.8 km/h 6.4 km/h 84% 0 mm 0.00 W/m2
04:54 26.7 °C 23.9 °C 1015.8 hPa SSE 6.4 km/h 6.4 km/h 84% 0 mm 0.00 W/m2
04:59 26.7 °C 23.9 °C 1015.8 hPa SSE 4.8 km/h 4.8 km/h 84% 0 mm 0.00 W/m2
05:04 26.7 °C 23.9 °C 1015.8 hPa SSE 1.6 km/h 4.8 km/h 84% 0 mm 0.00 W/m2
05:09 26.7 °C 23.9 °C 1015.8 hPa SSE 3.2 km/h 3.2 km/h 84% 0 mm 0.00 W/m2
05:14 26.7 °C 23.3 °C 1015.8 hPa SSE 3.2 km/h 3.2 km/h 84% 0 mm 0.00 W/m2
05:19 26.7 °C 23.3 °C 1015.8 hPa SSE 3.2 km/h 3.2 km/h 84% 0 mm 0.00 W/m2
05:24 26.7 °C 23.3 °C 1015.8 hPa SSE 1.6 km/h 1.6 km/h 84% 0 mm 0.00 W/m2
05:29 26.7 °C 23.3 °C 1015.8 hPa SSE 1.6 km/h 1.6 km/h 84% 0 mm 0.00 W/m2
05:34 26.1 °C 23.3 °C 1015.8 hPa SSE 1.6 km/h 1.6 km/h 84% 0 mm 0.00 W/m2
05:39 26.1 °C 23.3 °C 1015.8 hPa SSE 1.6 km/h 1.6 km/h 84% 0 mm 0.00 W/m2
05:44 26.1 °C 23.3 °C 1015.8 hPa SSE 1.6 km/h 1.6 km/h 84% 0 mm 0.00 W/m2
05:49 26.1 °C 23.3 °C 1015.8 hPa Calm   1.6 km/h 84% 0 mm 0.00 W/m2
05:54 26.1 °C 23.3 °C 1015.8 hPa Calm   1.6 km/h 84% 0 mm 0.00 W/m2
05:59 26.1 °C 23.3 °C 1015.8 hPa Calm     84% 0 mm 0.00 W/m2
06:04 26.1 °C 23.3 °C 1015.8 hPa Calm     84% 0 mm 0.00 W/m2
06:09 26.1 °C 22.8 °C 1015.8 hPa Calm     84% 0 mm 0.00 W/m2
06:14 25.6 °C 22.8 °C 1015.8 hPa Calm     84% 0 mm 0.00 W/m2
06:19 25.6 °C 22.8 °C 1015.8 hPa Calm     85% 0 mm 0.00 W/m2
06:24 25.6 °C 23.3 °C 1015.8 hPa Calm     85% 0 mm 0.00 W/m2
06:29 25.6 °C 23.3 °C 1015.8 hPa SSE 3.2 km/h 3.2 km/h 85% 0 mm 0.00 W/m2
06:34 25.6 °C 23.3 °C 1015.8 hPa SSE 1.6 km/h 3.2 km/h 85% 0 mm 0.00 W/m2
06:39 25.6 °C 23.3 °C 1015.8 hPa Calm   1.6 km/h 85% 0 mm 5.00 W/m2
06:44 25.6 °C 22.8 °C 1015.8 hPa Calm     85% 0 mm 7.00 W/m2
06:49 25.6 °C 22.8 °C 1015.8 hPa SSE 1.6 km/h 3.2 km/h 85% 0 mm 9.00 W/m2
06:54 25.6 °C 23.3 °C 1015.8 hPa SSE 3.2 km/h 3.2 km/h 86% 0 mm 11.00 W/m2
06:59 25.6 °C 23.3 °C 1015.8 hPa SSE 1.6 km/h 3.2 km/h 86% 0 mm 12.00 W/m2
07:04 25.6 °C 23.3 °C 1015.8 hPa South 3.2 km/h 4.8 km/h 86% 0 mm 14.00 W/m2
07:09 25.6 °C 23.3 °C 1015.8 hPa South 3.2 km/h 4.8 km/h 87% 0 mm 16.00 W/m2
07:14 26.1 °C 23.9 °C 1015.8 hPa South 4.8 km/h 4.8 km/h 87% 0 mm 18.00 W/m2
07:19 26.1 °C 23.9 °C 1015.8 hPa South 3.2 km/h 4.8 km/h 87% 0 mm 19.00 W/m2
07:24 26.1 °C 23.9 °C 1015.8 hPa South 4.8 km/h 4.8 km/h 87% 0 mm 37.00 W/m2
07:29 26.1 °C 23.9 °C 1015.8 hPa South 6.4 km/h 8 km/h 87% 0 mm 44.00 W/m2
07:34 26.1 °C 24.4 °C 1015.8 hPa SSE 8 km/h 8 km/h 88% 0 mm 58.00 W/m2
07:39 26.1 °C 24.4 °C 1015.8 hPa SSE 8 km/h 8 km/h 88% 0 mm 25.00 W/m2
07:44 26.7 °C 24.4 °C 1015.8 hPa SSE 8 km/h 8 km/h 88% 0 mm 26.00 W/m2
07:49 26.7 °C 24.4 °C 1015.8 hPa South 6.4 km/h 8 km/h 88% 0 mm 28.00 W/m2
07:54 26.7 °C 24.4 °C 1015.8 hPa SSW 4.8 km/h 6.4 km/h 88% 0 mm 30.00 W/m2
07:59 26.7 °C 24.4 °C 1015.8 hPa South 6.4 km/h 8 km/h 88% 0 mm 32.00 W/m2
08:04 27.2 °C 25 °C 1015.8 hPa SSE 6.4 km/h 8 km/h 88% 0 mm 47.00 W/m2
08:09 27.2 °C 25 °C 1015.8 hPa SSE 8 km/h 8 km/h 87% 0 mm 63.00 W/m2
08:14 27.2 °C 25 °C 1019.2 hPa South 4.8 km/h 8 km/h 87% 0 mm 107.00 W/m2
08:19 27.8 °C 25 °C 1019.2 hPa SSW 12.9 km/h 17.7 km/h 87% 0 mm 118.00 W/m2
08:24 27.8 °C 25 °C 1019.2 hPa SSW 8 km/h 9.7 km/h 86% 0 mm 105.00 W/m2
08:29 27.8 °C 25 °C 1019.2 hPa SSW 14.5 km/h 14.5 km/h 85% 0 mm 104.00 W/m2
08:34 27.8 °C 25 °C 1019.2 hPa South 6.4 km/h 8 km/h 84% 0 mm 104.00 W/m2
08:39 28.3 °C 25 °C 1019.2 hPa South 8 km/h 9.7 km/h 84% 0 mm 172.00 W/m2
08:44 28.3 °C 25 °C 1019.2 hPa South 11.3 km/h 11.3 km/h 83% 0 mm 214.00 W/m2
08:49 28.3 °C 25 °C 1019.2 hPa South 11.3 km/h 11.3 km/h 82% 0 mm 192.00 W/m2
08:54 28.9 °C 25 °C 1019.2 hPa South 9.7 km/h 11.3 km/h 81% 0 mm 218.00 W/m2
08:59 28.9 °C 25 °C 1019.2 hPa South 12.9 km/h 12.9 km/h 80% 0 mm 165.00 W/m2
09:04 28.9 °C 25 °C 1019.2 hPa South 12.9 km/h 12.9 km/h 79% 0 mm 86.00 W/m2
09:09 28.9 °C 25 °C 1019.2 hPa South 12.9 km/h 12.9 km/h 78% 0 mm 501.00 W/m2
09:14 29.4 °C 25 °C 1019.2 hPa South 11.3 km/h 17.7 km/h 78% 0 mm 501.00 W/m2
09:19 29.4 °C 25 °C 1019.2 hPa South 16.1 km/h 16.1 km/h 76% 0 mm 506.00 W/m2
09:24 30 °C 25 °C 1019.2 hPa South 11.3 km/h 16.1 km/h 77% 0 mm 582.00 W/m2
09:29 30 °C 25.6 °C 1019.2 hPa South 17.7 km/h 17.7 km/h 77% 0 mm 571.00 W/m2
09:34 30.6 °C 25.6 °C 1019.2 hPa South 9.7 km/h 17.7 km/h 75% 0 mm 538.00 W/m2
09:39 30.6 °C 25 °C 1019.2 hPa SW 12.9 km/h 14.5 km/h 73% 0 mm 531.00 W/m2
09:44 30.6 °C 25 °C 1019.2 hPa SSW 9.7 km/h 14.5 km/h 72% 0 mm 183.00 W/m2
09:49 30.6 °C 25 °C 1019.2 hPa SSW 12.9 km/h 12.9 km/h 71% 0 mm 218.00 W/m2
09:54 31.1 °C 24.4 °C 1019.2 hPa SW 12.9 km/h 12.9 km/h 69% 0 mm 563.00 W/m2
09:59 31.1 °C 24.4 °C 1019.2 hPa SSW 12.9 km/h 14.5 km/h 69% 0 mm 580.00 W/m2
10:04 31.1 °C 25 °C 1019.2 hPa SSW 11.3 km/h 12.9 km/h 69% 0 mm 603.00 W/m2
10:09 31.1 °C 25 °C 1019.2 hPa SSW 8 km/h 11.3 km/h 69% 0 mm 642.00 W/m2
10:14 31.7 °C 25 °C 1019.2 hPa South 12.9 km/h 12.9 km/h 69% 0 mm 642.00 W/m2
10:19 31.7 °C 25 °C 1019.2 hPa South 17.7 km/h 19.3 km/h 67% 0 mm 624.00 W/m2
10:24 32.2 °C 25 °C 1019.2 hPa SSE 14.5 km/h 19.3 km/h 66% 0 mm 684.00 W/m2
10:29 32.2 °C 25 °C 1019.2 hPa South 14.5 km/h 19.3 km/h 65% 0 mm 670.00 W/m2
10:34 32.8 °C 25 °C 1019.2 hPa South 16.1 km/h 16.1 km/h 64% 0 mm 700.00 W/m2
10:39 33.3 °C 24.4 °C 1019.2 hPa SSE 16.1 km/h 20.9 km/h 61% 0 mm 694.00 W/m2
10:44 33.9 °C 23.9 °C 1019.2 hPa South 16.1 km/h 20.9 km/h 58% 0 mm 701.00 W/m2
10:49 33.9 °C 23.9 °C 1019.2 hPa SSE 25.7 km/h 25.7 km/h 57% 0 mm 729.00 W/m2
10:54 33.9 °C 24.4 °C 1019.2 hPa SSE 14.5 km/h 16.1 km/h 57% 0 mm 763.00 W/m2
10:59 34.4 °C 24.4 °C 1019.2 hPa South 16.1 km/h 17.7 km/h 56% 0 mm 842.00 W/m2
11:04 34.4 °C 24.4 °C 1019.2 hPa SSE 14.5 km/h 17.7 km/h 56% 0 mm 900.00 W/m2
11:09 35 °C 23.9 °C 1019.2 hPa South 14.5 km/h 14.5 km/h 54% 0 mm 942.00 W/m2
11:14 35 °C 23.9 °C 1019.2 hPa South 12.9 km/h 12.9 km/h 54% 0 mm 933.00 W/m2
11:19 35.6 °C 24.4 °C 1019.2 hPa South 11.3 km/h 11.3 km/h 53% 0 mm 893.00 W/m2
11:24 35.6 °C 23.9 °C 1019.2 hPa South 16.1 km/h 22.5 km/h 51% 0 mm 939.00 W/m2
11:29 35.6 °C 23.9 °C 1019.2 hPa South 12.9 km/h 12.9 km/h 51% 0 mm 963.00 W/m2
11:34 35.6 °C 23.9 °C 1019.2 hPa South 14.5 km/h 14.5 km/h 50% 0 mm 958.00 W/m2
11:39 35.6 °C 23.9 °C 1019.2 hPa SSW 9.7 km/h 12.9 km/h 51% 0 mm 411.00 W/m2
11:44 35 °C 23.9 °C 1019.2 hPa SSW 12.9 km/h 12.9 km/h 53% 0 mm 995.00 W/m2
11:49 35 °C 23.9 °C 1019.2 hPa South 8 km/h 8 km/h 53% 0 mm 995.00 W/m2
11:54 35 °C 24.4 °C 1019.2 hPa South 14.5 km/h 14.5 km/h 54% 0 mm 956.00 W/m2
11:59 35.6 °C 25 °C 1019.2 hPa SSE 9.7 km/h 12.9 km/h 54% 0 mm 1046.00 W/m2
12:04 35.6 °C 25 °C 1019.2 hPa South 12.9 km/h 14.5 km/h 54% 0 mm 1046.00 W/m2
12:09 36.1 °C 25 °C 1019.2 hPa SW 11.3 km/h 11.3 km/h 53% 0 mm 1083.00 W/m2
12:14 36.1 °C 25 °C 1015.8 hPa SW 12.9 km/h 12.9 km/h 53% 0 mm 1083.00 W/m2
12:19 35.6 °C 25 °C 1019.2 hPa WSW 12.9 km/h 14.5 km/h 54% 0 mm 1085.00 W/m2
12:24 35.6 °C 25 °C 1015.8 hPa SW 6.4 km/h 6.4 km/h 53% 0 mm 1085.00 W/m2
12:29 35.6 °C 24.4 °C 1015.8 hPa SW 12.9 km/h 12.9 km/h 52% 0 mm 1076.00 W/m2
12:34 35.6 °C 25 °C 1015.8 hPa SW 11.3 km/h 12.9 km/h 53% 0 mm 1107.00 W/m2
12:39 35.6 °C 23.9 °C 1015.8 hPa SW 8 km/h 8 km/h 51% 0 mm 1100.00 W/m2
12:44 36.1 °C 24.4 °C 1015.8 hPa SSE 11.3 km/h 11.3 km/h 51% 0 mm 1065.00 W/m2
12:49 36.7 °C 24.4 °C 1015.8 hPa South 8 km/h 11.3 km/h 51% 0 mm 1062.00 W/m2
12:54 36.7 °C 25 °C 1015.8 hPa SE 6.4 km/h 6.4 km/h 51% 0 mm 1078.00 W/m2
12:59 37.2 °C 25.6 °C 1015.8 hPa South 9.7 km/h 9.7 km/h 52% 0 mm 1093.00 W/m2
13:04 37.8 °C 25 °C 1015.8 hPa South 4.8 km/h 9.7 km/h 49% 0 mm 1078.00 W/m2
13:09 37.8 °C 25 °C 1015.8 hPa ESE 6.4 km/h 6.4 km/h 48% 0 mm 1058.00 W/m2
13:14 38.3 °C 25 °C 1015.8 hPa South 12.9 km/h 12.9 km/h 49% 0 mm 1072.00 W/m2
13:19 38.3 °C 25 °C 1015.8 hPa South 9.7 km/h 11.3 km/h 47% 0 mm 1086.00 W/m2
13:24 38.3 °C 24.4 °C 1015.8 hPa WSW 12.9 km/h 12.9 km/h 46% 0 mm 1148.00 W/m2
13:29 37.8 °C 24.4 °C 1015.8 hPa WNW 12.9 km/h 14.5 km/h 47% 0 mm 1157.00 W/m2
13:34 37.8 °C 24.4 °C 1015.8 hPa SE 12.9 km/h 12.9 km/h 46% 0 mm 1069.00 W/m2
13:39 38.3 °C 24.4 °C 1015.8 hPa SSE 14.5 km/h 16.1 km/h 47% 0 mm 1067.00 W/m2
13:44 38.3 °C 25.6 °C 1015.8 hPa South 9.7 km/h 16.1 km/h 48% 0 mm 1065.00 W/m2
13:49 38.9 °C 25.6 °C 1015.8 hPa SSW 6.4 km/h 9.7 km/h 47% 0 mm 1035.00 W/m2
13:54 38.9 °C 25 °C 1015.8 hPa SSE 8 km/h 8 km/h 46% 0 mm 1011.00 W/m2
13:59 39.4 °C 25.6 °C 1015.8 hPa South 6.4 km/h 8 km/h 46% 0 mm 1051.00 W/m2
14:04 39.4 °C 25 °C 1015.8 hPa SSE 17.7 km/h 17.7 km/h 45% 0 mm 1071.00 W/m2
14:09 39.4 °C 25 °C 1015.8 hPa SSE 11.3 km/h 17.7 km/h 44% 0 mm 1055.00 W/m2
14:14 39.4 °C 25.6 °C 1015.8 hPa SSE 12.9 km/h 12.9 km/h 45% 0 mm 1104.00 W/m2
14:19 39.4 °C 25 °C 1015.8 hPa SE 14.5 km/h 14.5 km/h 44% 0 mm 1125.00 W/m2
14:24 39.4 °C 25.6 °C 1015.8 hPa SSE 9.7 km/h 14.5 km/h 46% 0 mm 1100.00 W/m2
14:29 39.4 °C 25 °C 1015.8 hPa South 11.3 km/h 12.9 km/h 44% 0 mm 1072.00 W/m2
14:34 39.4 °C 25 °C 1015.8 hPa South 14.5 km/h 14.5 km/h 44% 0 mm 1092.00 W/m2
14:39 39.4 °C 25 °C 1015.8 hPa South 6.4 km/h 6.4 km/h 44% 0 mm 232.00 W/m2
14:44 38.9 °C 24.4 °C 1015.8 hPa SSE 8 km/h 8 km/h 44% 0 mm 1039.00 W/m2
14:49 38.9 °C 23.9 °C 1015.8 hPa ESE 17.7 km/h 19.3 km/h 43% 0 mm 1088.00 W/m2
14:54 38.9 °C 24.4 °C 1015.8 hPa SE 17.7 km/h 19.3 km/h 44% 0 mm 251.00 W/m2
14:59 38.3 °C 24.4 °C 1015.8 hPa SSE 12.9 km/h 12.9 km/h 45% 0 mm 206.00 W/m2
15:04 38.3 °C 24.4 °C 1015.8 hPa SE 14.5 km/h 14.5 km/h 46% 0 mm 214.00 W/m2
15:09 37.8 °C 24.4 °C 1015.8 hPa SSE 12.9 km/h 14.5 km/h 46% 0 mm 214.00 W/m2
15:14 37.8 °C 24.4 °C 1015.8 hPa SE 12.9 km/h 16.1 km/h 46% 0 mm 186.00 W/m2
15:19 37.8 °C 24.4 °C 1015.8 hPa SE 11.3 km/h 16.1 km/h 47% 0 mm 188.00 W/m2
15:24 37.2 °C 24.4 °C 1015.8 hPa SE 9.7 km/h 9.7 km/h 48% 0 mm 190.00 W/m2
15:29 37.2 °C 25 °C 1015.8 hPa SE 19.3 km/h 19.3 km/h 50% 0 mm 151.00 W/m2
15:34 36.7 °C 25 °C 1015.8 hPa SE 17.7 km/h 20.9 km/h 52% 0 mm 134.00 W/m2
15:39 36.7 °C 25 °C 1015.8 hPa SE 14.5 km/h 17.7 km/h 53% 0 mm 204.00 W/m2
15:44 36.1 °C 25 °C 1015.8 hPa SE 16.1 km/h 17.7 km/h 53% 0 mm 204.00 W/m2
15:49 36.1 °C 25 °C 1015.8 hPa SE 22.5 km/h 22.5 km/h 54% 0 mm 316.00 W/m2
15:54 36.1 °C 25 °C 1015.8 hPa SSE 17.7 km/h 17.7 km/h 54% 0 mm 316.00 W/m2
15:59 36.1 °C 25.6 °C 1015.8 hPa SSE 14.5 km/h 16.1 km/h 54% 0 mm 408.00 W/m2
16:04 36.1 °C 25 °C 1015.8 hPa SE 14.5 km/h 16.1 km/h 53% 0 mm 874.00 W/m2
16:09 36.7 °C 25 °C 1015.8 hPa SE 12.9 km/h 16.1 km/h 53% 0 mm 874.00 W/m2
16:14 36.7 °C 25 °C 1015.8 hPa SE 14.5 km/h 17.7 km/h 52% 0 mm 830.00 W/m2
16:19 37.2 °C 25.6 °C 1015.8 hPa South 17.7 km/h 20.9 km/h 51% 0 mm 761.00 W/m2
16:24 37.2 °C 25 °C 1015.8 hPa SSE 16.1 km/h 20.9 km/h 49% 0 mm 740.00 W/m2
16:29 37.2 °C 25 °C 1015.8 hPa SSE 3.2 km/h 9.7 km/h 50% 0 mm 330.00 W/m2
16:34 37.2 °C 25 °C 1015.8 hPa South 9.7 km/h 12.9 km/h 50% 0 mm 712.00 W/m2
16:39 37.8 °C 25 °C 1015.8 hPa South 9.7 km/h 11.3 km/h 49% 0 mm 717.00 W/m2
16:44 37.8 °C 25 °C 1015.8 hPa SSE 17.7 km/h 17.7 km/h 49% 0 mm 705.00 W/m2
16:49 37.8 °C 25 °C 1015.8 hPa SE 14.5 km/h 17.7 km/h 48% 0 mm 719.00 W/m2
16:54 38.3 °C 25 °C 1015.8 hPa SSE 12.9 km/h 12.9 km/h 48% 0 mm 737.00 W/m2
16:59 38.3 °C 25.6 °C 1015.8 hPa SSE 8 km/h 9.7 km/h 48% 0 mm 737.00 W/m2
17:04 38.9 °C 25.6 °C 1015.8 hPa SSE 11.3 km/h 11.3 km/h 48% 0 mm 712.00 W/m2
17:09 38.9 °C 25 °C 1015.8 hPa SSE 19.3 km/h 19.3 km/h 46% 0 mm 633.00 W/m2
17:14 38.3 °C 25 °C 1015.8 hPa SSE 19.3 km/h 22.5 km/h 48% 0 mm 118.00 W/m2
17:19 37.8 °C 26.1 °C 1015.8 hPa SSE 24.1 km/h 27.4 km/h 54% 0 mm 121.00 W/m2
17:24 36.7 °C 26.7 °C 1015.8 hPa SSE 20.9 km/h 27.4 km/h 58% 0 mm 121.00 W/m2
17:29 35.6 °C 26.1 °C 1015.8 hPa SE 24.1 km/h 24.1 km/h 60% 0 mm 125.00 W/m2
17:34 35 °C 26.1 °C 1015.8 hPa SE 20.9 km/h 22.5 km/h 61% 0 mm 123.00 W/m2
17:39 34.4 °C 25.6 °C 1015.8 hPa SE 22.5 km/h 29 km/h 61% 0 mm 109.00 W/m2
17:44 33.9 °C 25 °C 1015.8 hPa SE 24.1 km/h 29 km/h 62% 0 mm 98.00 W/m2
17:49 33.3 °C 25 °C 1015.8 hPa SE 17.7 km/h 24.1 km/h 63% 0 mm 81.00 W/m2
17:54 33.3 °C 25 °C 1015.8 hPa SE 19.3 km/h 20.9 km/h 63% 0 mm 67.00 W/m2
17:59 32.8 °C 25 °C 1015.8 hPa SE 16.1 km/h 16.1 km/h 63% 0 mm 56.00 W/m2
18:04 32.8 °C 25 °C 1015.8 hPa SSE 20.9 km/h 20.9 km/h 63% 0 mm 49.00 W/m2
18:09 32.2 °C 25 °C 1015.8 hPa SE 19.3 km/h 19.3 km/h 65% 0 mm 47.00 W/m2
18:14 32.2 °C 25 °C 1015.8 hPa SE 17.7 km/h 20.9 km/h 65% 0 mm 46.00 W/m2
18:19 31.7 °C 25 °C 1015.8 hPa SSE 20.9 km/h 20.9 km/h 66% 0 mm 44.00 W/m2
18:24 31.7 °C 24.4 °C 1015.8 hPa SE 19.3 km/h 19.3 km/h 66% 0 mm 46.00 W/m2
18:29 31.7 °C 24.4 °C 1015.8 hPa SE 16.1 km/h 17.7 km/h 66% 0 mm 47.00 W/m2
18:34 31.7 °C 24.4 °C 1015.8 hPa SSE 14.5 km/h 16.1 km/h 66% 0 mm 47.00 W/m2
18:39 31.1 °C 24.4 °C 1015.8 hPa SSE 9.7 km/h 12.9 km/h 66% 0 mm 47.00 W/m2
18:44 31.1 °C 24.4 °C 1015.8 hPa SE 17.7 km/h 17.7 km/h 66% 0 mm 47.00 W/m2
18:49 31.1 °C 24.4 °C 1015.8 hPa SSE 11.3 km/h 12.9 km/h 66% 0 mm 46.00 W/m2
18:54 31.1 °C 24.4 °C 1015.8 hPa SE 16.1 km/h 16.1 km/h 66% 0 mm 40.00 W/m2
18:59 31.1 °C 23.9 °C 1015.8 hPa SE 14.5 km/h 16.1 km/h 66% 0 mm 35.00 W/m2
19:04 31.1 °C 23.9 °C 1015.8 hPa SE 16.1 km/h 16.1 km/h 66% 0 mm 30.00 W/m2
19:09 31.1 °C 23.9 °C 1015.8 hPa SE 9.7 km/h 11.3 km/h 66% 0 mm 25.00 W/m2
19:14 31.1 °C 23.9 °C 1015.8 hPa SE 9.7 km/h 9.7 km/h 66% 0 mm 23.00 W/m2
19:19 31.1 °C 23.9 °C 1015.8 hPa SE 12.9 km/h 14.5 km/h 66% 0 mm 19.00 W/m2
19:24 31.1 °C 24.4 °C 1015.8 hPa SE 12.9 km/h 14.5 km/h 67% 0 mm 18.00 W/m2
19:29 31.1 °C 24.4 °C 1015.8 hPa SE 11.3 km/h 12.9 km/h 67% 0 mm 16.00 W/m2
19:34 31.1 °C 24.4 °C 1015.8 hPa SE 12.9 km/h 12.9 km/h 67% 0 mm 14.00 W/m2
19:39 31.1 °C 24.4 °C 1015.8 hPa SSE 11.3 km/h 12.9 km/h 67% 0 mm 12.00 W/m2
19:44 31.1 °C 24.4 °C 1015.8 hPa SE 12.9 km/h 14.5 km/h 67% 0 mm 12.00 W/m2
19:49 31.1 °C 24.4 °C 1015.8 hPa SE 12.9 km/h 12.9 km/h 67% 0 mm 11.00 W/m2
19:54 31.1 °C 24.4 °C 1015.8 hPa SE 11.3 km/h 12.9 km/h 67% 0 mm 9.00 W/m2
19:59 31.1 °C 24.4 °C 1015.8 hPa SE 12.9 km/h 12.9 km/h 67% 0 mm 12.00 W/m2
20:04 31.1 °C 24.4 °C 1015.8 hPa SE 12.9 km/h 12.9 km/h 67% 0 mm 16.00 W/m2
20:09 31.1 °C 24.4 °C 1015.8 hPa SSE 12.9 km/h 16.1 km/h 67% 0 mm 16.00 W/m2
20:14 31.1 °C 24.4 °C 1015.8 hPa SSE 9.7 km/h 16.1 km/h 67% 0 mm 12.00 W/m2
20:19 31.1 °C 24.4 °C 1015.8 hPa SSE 11.3 km/h 12.9 km/h 67% 0 mm 9.00 W/m2
20:24 31.1 °C 23.9 °C 1015.8 hPa SSE 16.1 km/h 19.3 km/h 66% 0 mm 5.00 W/m2
20:29 31.1 °C 24.4 °C 1015.8 hPa SSE 16.1 km/h 19.3 km/h 67% 0 mm 0.00 W/m2
20:34 31.1 °C 24.4 °C 1015.8 hPa SSE 22.5 km/h 22.5 km/h 67% 0 mm 0.00 W/m2
20:39 31.1 °C 24.4 °C 1015.8 hPa SE 14.5 km/h 22.5 km/h 67% 0 mm 0.00 W/m2
20:44 31.1 °C 24.4 °C 1015.8 hPa SSE 16.1 km/h 17.7 km/h 67% 0 mm 0.00 W/m2
20:49 31.1 °C 24.4 °C 1015.8 hPa SE 17.7 km/h 17.7 km/h 67% 0 mm 0.00 W/m2
20:54 31.1 °C 24.4 °C 1015.8 hPa SSE 14.5 km/h 14.5 km/h 68% 0 mm 0.00 W/m2
20:59 31.1 °C 24.4 °C 1015.8 hPa SSE 12.9 km/h 14.5 km/h 68% 0 mm 0.00 W/m2
21:04 31.1 °C 24.4 °C 1015.8 hPa SSE 17.7 km/h 17.7 km/h 68% 0 mm 0.00 W/m2
21:09 30.6 °C 24.4 °C 1015.8 hPa SSE 16.1 km/h 17.7 km/h 68% 0 mm 0.00 W/m2
21:14 30.6 °C 24.4 °C 1015.8 hPa SSE 11.3 km/h 14.5 km/h 69% 0 mm 0.00 W/m2
21:19 30.6 °C 24.4 °C 1015.8 hPa SSE 14.5 km/h 14.5 km/h 69% 0 mm 0.00 W/m2
21:24 30.6 °C 24.4 °C 1015.8 hPa SSE 16.1 km/h 16.1 km/h 69% 0 mm 0.00 W/m2
21:29 30.6 °C 24.4 °C 1015.8 hPa SSE 16.1 km/h 16.1 km/h 69% 0 mm 0.00 W/m2
21:34 30.6 °C 23.9 °C 1015.8 hPa SSE 9.7 km/h 11.3 km/h 69% 0 mm 0.00 W/m2
21:39 30.6 °C 23.9 °C 1015.8 hPa SSE 12.9 km/h 12.9 km/h 69% 0 mm 0.00 W/m2
21:44 30.6 °C 23.9 °C 1015.8 hPa SSE 12.9 km/h 16.1 km/h 69% 0 mm 0.00 W/m2
21:49 30 °C 23.9 °C 1015.8 hPa SSE 11.3 km/h 16.1 km/h 70% 0 mm 0.00 W/m2
21:54 30 °C 23.9 °C 1015.8 hPa SSE 9.7 km/h 12.9 km/h 70% 0 mm 0.00 W/m2
21:59 30 °C 23.9 °C 1015.8 hPa SSE 11.3 km/h 12.9 km/h 70% 0 mm 0.00 W/m2
22:04 30 °C 23.9 °C 1015.8 hPa SSE 12.9 km/h 12.9 km/h 70% 0 mm 0.00 W/m2
22:09 30 °C 23.9 °C 1015.8 hPa SSE 12.9 km/h 12.9 km/h 70% 0 mm 0.00 W/m2
22:14 30 °C 23.9 °C 1015.8 hPa SSE 12.9 km/h 12.9 km/h 71% 0 mm 0.00 W/m2
22:19 30 °C 23.9 °C 1015.8 hPa SSE 16.1 km/h 16.1 km/h 71% 0 mm 0.00 W/m2
22:24 30 °C 23.9 °C 1015.8 hPa SSE 17.7 km/h 17.7 km/h 71% 0 mm 0.00 W/m2
22:29 30 °C 23.9 °C 1015.8 hPa SSE 8 km/h 17.7 km/h 71% 0 mm 0.00 W/m2
22:34 30 °C 23.9 °C 1015.8 hPa SSE 12.9 km/h 16.1 km/h 71% 0 mm 0.00 W/m2
22:39 30 °C 23.9 °C 1015.8 hPa SSE 11.3 km/h 16.1 km/h 71% 0 mm 0.00 W/m2
22:44 29.4 °C 23.9 °C 1015.8 hPa SSE 9.7 km/h 14.5 km/h 71% 0 mm 0.00 W/m2
22:49 29.4 °C 23.9 °C 1015.8 hPa SSE 9.7 km/h 12.9 km/h 71% 0 mm 0.00 W/m2
22:54 29.4 °C 23.9 °C 1015.8 hPa SSE 11.3 km/h 12.9 km/h 72% 0 mm 0.00 W/m2
22:59 29.4 °C 23.9 °C 1015.8 hPa SSE 9.7 km/h 12.9 km/h 72% 0 mm 0.00 W/m2
23:04 29.4 °C 23.9 °C 1015.8 hPa SSE 6.4 km/h 6.4 km/h 72% 0 mm 0.00 W/m2
23:09 29.4 °C 23.9 °C 1015.8 hPa SSE 6.4 km/h 8 km/h 72% 0 mm 0.00 W/m2
23:14 29.4 °C 23.9 °C 1015.8 hPa South 9.7 km/h 9.7 km/h 72% 0 mm 0.00 W/m2
23:19 29.4 °C 23.9 °C 1015.8 hPa SSE 11.3 km/h 14.5 km/h 73% 0 mm 0.00 W/m2
23:24 29.4 °C 23.9 °C 1015.8 hPa South 8 km/h 11.3 km/h 73% 0 mm 0.00 W/m2
23:29 29.4 °C 23.9 °C 1015.8 hPa South 9.7 km/h 12.9 km/h 73% 0 mm 0.00 W/m2
23:34 28.9 °C 23.9 °C 1015.8 hPa South 11.3 km/h 11.3 km/h 73% 0 mm 0.00 W/m2
23:39 28.9 °C 23.9 °C 1015.8 hPa SSE 11.3 km/h 11.3 km/h 74% 0 mm 0.00 W/m2
23:44 28.9 °C 23.9 °C 1015.8 hPa SSE 9.7 km/h 11.3 km/h 74% 0 mm 0.00 W/m2
23:49 28.9 °C 23.9 °C 1015.8 hPa SSE 11.3 km/h 11.3 km/h 74% 0 mm 0.00 W/m2
23:54 28.9 °C 23.9 °C 1015.8 hPa South 9.7 km/h 14.5 km/h 74% 0 mm 0.00 W/m2
23:59 28.9 °C 23.9 °C 1015.8 hPa SSE 11.3 km/h 12.9 km/h 75% 0 mm 0.00 W/m2
Villages of Bridgestone, Spring, TX USA
Compliments of Weather Underground - 4 mb